| time (UTC) | temp F | wind direction | speed knots | gust knots | rain 1hr in | rain 24hr in | rain mn in | humidity % | barometer mb |
| 20260503214005 | 58 | 143 | 1.7 | 2.6 | 0.00 | 0.00 | 0.00 | 82 | 1033.8 |
| 20260503213505 | 58 | 23 | 0.9 | 1.7 | 0.00 | 0.00 | 0.00 | 84 | 1033.9 |
| 20260503212504 | 57 | 315 | 0.9 | 2.6 | 0.00 | 0.00 | 0.00 | 84 | 1033.9 |
| 20260503212005 | 56 | 151 | 1.7 | 2.6 | 0.00 | 0.00 | 0.00 | 85 | 1033.8 |
| 20260503211505 | 56 | 303 | 0.0 | 2.6 | 0.00 | 0.00 | 0.00 | 85 | 1033.7 |
| 20260503210505 | 55 | 169 | 0.9 | 1.7 | 0.00 | 0.00 | 0.00 | 85 | 1033.9 |
| 20260503205505 | 55 | 296 | 0.9 | 1.7 | 0.00 | 0.00 | 0.00 | 87 | 1033.9 |
| 20260503204507 | 54 | 300 | 0.9 | 2.6 | 0.00 | 0.00 | 0.00 | 87 | 1034.2 |
| 20260503203505 | 53 | 154 | 1.7 | 2.6 | 0.00 | 0.00 | 0.00 | 87 | 1034.1 |
| 20260503203007 | 53 | 168 | 0.0 | 1.7 | 0.00 | 0.00 | 0.00 | 88 | 1034.0 |
| 20260503201506 | 53 | 103 | 1.7 | 2.6 | 0.00 | 0.00 | 0.00 | 88 | 1034.0 |
| 20260503201005 | 53 | 106 | 1.7 | 2.6 | 0.00 | 0.00 | 0.00 | 88 | 1033.9 |
| 20260503195506 | 52 | 29 | 0.0 | 1.7 | 0.00 | 0.00 | 0.00 | 88 | 1033.7 |
| 20260503195006 | 52 | 168 | 1.7 | 2.6 | 0.00 | 0.00 | 0.00 | 89 | 1033.6 |
| 20260503193005 | 52 | 74 | 1.7 | 4.3 | 0.00 | 0.00 | 0.00 | 89 | 1033.6 |
| 20260503192505 | 52 | 193 | 2.6 | 4.3 | 0.00 | 0.00 | 0.00 | 89 | 1033.4 |
| 20260503190007 | 52 | 137 | 2.6 | 4.3 | 0.00 | 0.00 | 0.00 | 89 | 1033.4 |
| 20260503184006 | 52 | 142 | 3.5 | 6.1 | 0.00 | 0.00 | 0.00 | 89 | 1033.2 |
| 20260503183504 | 52 | 147 | 3.5 | 6.1 | 0.00 | 0.00 | 0.00 | 88 | 1033.2 |
| 20260503181005 | 52 | 116 | 1.7 | 4.3 | 0.00 | 0.00 | 0.00 | 87 | 1032.9 |
| 20260503180507 | 52 | 38 | 2.6 | 4.3 | 0.00 | 0.00 | 0.00 | 87 | 1032.8 |
| 20260503180005 | 52 | 7 | 1.7 | 2.6 | 0.00 | 0.00 | 0.00 | 87 | 1032.8 |
| 20260503174506 | 52 | 16 | 1.7 | 2.6 | 0.00 | 0.00 | 0.00 | 87 | 1032.9 |
| 20260503173505 | 52 | 115 | 0.9 | 2.6 | 0.00 | 0.00 | 0.00 | 87 | 1032.7 |
| 20260503173004 | 52 | 16 | 1.7 | 2.6 | 0.00 | 0.00 | 0.00 | 87 | 1032.7 |
| 20260503172505 | 52 | 61 | 2.6 | 4.3 | 0.00 | 0.00 | 0.00 | 87 | 1032.5 |
| 20260503171505 | 52 | 59 | 2.6 | 2.6 | 0.00 | 0.00 | 0.00 | 86 | 1032.7 |
| 20260503171004 | 52 | 35 | 2.6 | 4.3 | 0.00 | 0.00 | 0.00 | 86 | 1032.6 |
| 20260503170506 | 52 | 90 | 2.6 | 4.3 | 0.00 | 0.00 | 0.00 | 86 | 1032.7 |
| 20260503151007 | 53 | 179 | 2.6 | 6.1 | 0.00 | 0.00 | 0.00 | 86 | 1032.9 |
| 20260503150506 | 53 | 160 | 2.6 | 4.3 | 0.00 | 0.00 | 0.00 | 86 | 1033.1 |
| 20260503130506 | 53 | 49 | 0.9 | 2.6 | 0.00 | 0.00 | 0.00 | 86 | 1033.8 |
| 20260503090506 | 55 | 326 | 1.7 | 2.6 | 0.00 | 0.00 | 0.00 | 79 | 1033.0 |
| 20260503080506 | 55 | 334 | 0.9 | 1.7 | 0.00 | 0.00 | 0.00 | 78 | 1032.7 |
| 20260503072506 | 56 | 331 | 1.7 | 2.6 | 0.00 | 0.00 | 0.00 | 77 | 1032.6 |
| 20260503071006 | 56 | 358 | 1.7 | 1.7 | 0.00 | 0.00 | 0.00 | 77 | 1032.5 |
| 20260503054507 | 58 | 208 | 1.7 | 7.0 | 0.00 | 0.00 | 0.00 | 73 | 1032.1 |
| 20260503053008 | 59 | 208 | 4.3 | 7.0 | 0.00 | 0.00 | 0.00 | 72 | 1031.8 |
| 20260503052005 | 60 | 204 | 5.2 | 7.8 | 0.00 | 0.00 | 0.00 | 71 | 1032.0 |
| 20260503045005 | 61 | 212 | 6.1 | 12.2 | 0.00 | 0.00 | 0.00 | 69 | 1031.9 |
| 20260503044507 | 61 | 215 | 6.1 | 11.3 | 0.00 | 0.00 | 0.00 | 69 | 1031.9 |
| 20260503043005 | 62 | 210 | 7.0 | 11.3 | 0.00 | 0.00 | 0.00 | 67 | 1031.8 |
| 20260503042508 | 62 | 203 | 7.0 | 10.4 | 0.00 | 0.00 | 0.00 | 67 | 1031.8 |
| 20260503040007 | 63 | 207 | 4.3 | 10.4 | 0.00 | 0.00 | 0.00 | 66 | 1031.9 |
| 20260503035505 | 64 | 203 | 4.3 | 11.3 | 0.00 | 0.00 | 0.00 | 65 | 1032.0 |
| 20260503033505 | 64 | 221 | 7.0 | 10.4 | 0.00 | 0.00 | 0.00 | 63 | 1031.8 |
| 20260503032006 | 65 | 217 | 5.2 | 8.7 | 0.00 | 0.00 | 0.00 | 63 | 1031.9 |
| 20260503031006 | 65 | 213 | 5.2 | 11.3 | 0.00 | 0.00 | 0.00 | 62 | 1031.8 |
| 20260503025006 | 66 | 235 | 4.3 | 7.8 | 0.00 | 0.00 | 0.00 | 62 | 1031.8 |
| 20260503023506 | 66 | 205 | 5.2 | 8.7 | 0.00 | 0.00 | 0.00 | 61 | 1031.8 |
| 20260503023007 | 67 | 211 | 5.2 | 7.0 | 0.00 | 0.00 | 0.00 | 59 | 1032.0 |
| 20260503022006 | 67 | 273 | 3.5 | 4.3 | 0.00 | 0.00 | 0.00 | 62 | 1031.9 |
| 20260503021507 | 66 | 212 | 2.6 | 5.2 | 0.00 | 0.00 | 0.00 | 59 | 1032.0 |
| 20260503021005 | 67 | 187 | 1.7 | 5.2 | 0.00 | 0.00 | 0.00 | 58 | 1032.1 |
| 20260503020505 | 67 | 323 | 0.9 | 1.7 | 0.00 | 0.00 | 0.00 | 59 | 1032.2 |
| 20260503015507 | 66 | 226 | 0.9 | 2.6 | 0.00 | 0.00 | 0.00 | 58 | 1032.2 |
| 20260503015006 | 66 | 34 | 2.6 | 4.3 | 0.00 | 0.00 | 0.00 | 60 | 1032.1 |
| 20260503014006 | 65 | 44 | 2.6 | 6.1 | 0.00 | 0.00 | 0.00 | 58 | 1032.3 |
| 20260503013507 | 66 | 60 | 2.6 | 6.1 | 0.00 | 0.00 | 0.00 | 59 | 1032.4 |
| 20260503013006 | 66 | 63 | 3.5 | 5.2 | 0.00 | 0.00 | 0.00 | 58 | 1032.4 |
| 20260503012506 | 65 | 45 | 3.5 | 8.7 | 0.00 | 0.00 | 0.00 | 60 | 1032.4 |
| 20260503012007 | 65 | 39 | 4.3 | 8.7 | 0.00 | 0.00 | 0.00 | 60 | 1032.5 |
| 20260503011506 | 65 | 86 | 2.6 | 6.1 | 0.00 | 0.00 | 0.00 | 60 | 1032.8 |
| 20260503010506 | 65 | 82 | 1.7 | 5.2 | 0.00 | 0.00 | 0.00 | 58 | 1032.7 |
| 20260503005505 | 65 | 34 | 5.2 | 8.7 | 0.00 | 0.00 | 0.00 | 61 | 1032.6 |
| 20260503004504 | 64 | 85 | 1.7 | 4.3 | 0.00 | 0.00 | 0.00 | 61 | 1032.9 |
| 20260503003006 | 65 | 85 | 3.5 | 7.0 | 0.00 | 0.00 | 0.00 | 59 | 1033.2 |
| 20260503001507 | 65 | 62 | 4.3 | 7.8 | 0.00 | 0.00 | 0.00 | 61 | 1033.4 |
| 20260503001007 | 65 | 47 | 2.6 | 7.8 | 0.00 | 0.00 | 0.00 | 59 | 1033.6 |
| 20260503000506 | 65 | 54 | 4.3 | 6.1 | 0.00 | 0.00 | 0.00 | 62 | 1033.5 |
| 20260503000006 | 64 | 6 | 1.7 | 7.8 | 0.00 | 0.00 | 0.00 | 58 | 1033.7 |
| 20260502235505 | 65 | 102 | 2.6 | 7.8 | 0.00 | 0.00 | 0.00 | 61 | 1033.5 |
| 20260502235007 | 65 | 18 | 2.6 | 7.0 | 0.00 | 0.00 | 0.00 | 62 | 1033.8 |
| 20260502234505 | 64 | 92 | 2.6 | 7.0 | 0.00 | 0.00 | 0.00 | 60 | 1033.9 |
| 20260502233506 | 64 | 87 | 4.3 | 7.0 | 0.00 | 0.00 | 0.00 | 61 | 1034.1 |
| 20260502232504 | 63 | 54 | 5.2 | 7.0 | 0.00 | 0.00 | 0.00 | 60 | 1034.1 |
| 20260502232006 | 64 | 94 | 3.5 | 6.1 | 0.00 | 0.00 | 0.00 | 63 | 1034.4 |
| 20260502225005 | 63 | 21 | 3.5 | 5.2 | 0.00 | 0.00 | 0.00 | 68 | 1034.3 |
| 20260502224506 | 62 | 8 | 1.7 | 5.2 | 0.00 | 0.00 | 0.00 | 67 | 1034.2 |
| 20260502223005 | 62 | 95 | 2.6 | 5.2 | 0.00 | 0.00 | 0.00 | 70 | 1034.1 |
| 20260502222006 | 61 | 68 | 3.5 | 5.2 | 0.00 | 0.00 | 0.00 | 71 | 1034.1 |
| 20260502221006 | 60 | 115 | 1.7 | 4.3 | 0.00 | 0.00 | 0.00 | 74 | 1034.2 |
| 20260502220504 | 60 | 101 | 1.7 | 4.3 | 0.00 | 0.00 | 0.00 | 75 | 1034.0 |
| 20260502220007 | 60 | 132 | 1.7 | 4.3 | 0.00 | 0.00 | 0.00 | 75 | 1034.1 |
| 20260502215004 | 59 | 95 | 1.7 | 4.3 | 0.00 | 0.00 | 0.00 | 78 | 1034.2 |